Time,TemperatureF,DewpointF,PressureIn,WindDirection,WindDirectionDegrees,WindSpeedMPH,WindSpeedGustMPH,Humidity,HourlyPrecipIn,Conditions,Clouds,dailyrainin,SoftwareType,DateUTC
2013-03-18 00:22:00,43.0,35.0,29.91,North,0,0.0,-999.0,72,0.00,,,-99.99,,2013-03-18 07:22:00,
2013-03-18 00:32:00,43.0,35.0,29.91,North,0,0.0,-999.0,72,0.00,,,-99.99,,2013-03-18 07:32:00,
2013-03-18 00:42:00,43.0,35.0,29.91,North,0,0.0,-999.0,72,0.00,,,-99.99,,2013-03-18 07:42:00,
2013-03-18 00:52:00,43.0,35.0,29.91,North,0,0.0,-999.0,72,0.00,,,-99.99,,2013-03-18 07:52:00,
2013-03-18 01:22:00,41.0,31.0,29.90,North,0,0.0,-999.0,68,0.00,,,-99.99,,2013-03-18 08:22:00,
2013-03-18 01:32:00,41.0,31.0,29.90,North,0,0.0,-999.0,68,0.00,,,-99.99,,2013-03-18 08:32:00,
2013-03-18 02:22:00,40.0,30.0,29.91,North,0,0.0,-999.0,68,0.00,,,-99.99,,2013-03-18 09:22:00,
2013-03-18 02:33:00,40.0,30.0,29.91,North,0,0.0,-999.0,68,0.00,,,-99.99,,2013-03-18 09:33:00,
2013-03-18 03:23:00,39.0,28.0,29.91,North,0,0.0,-999.0,64,0.00,,,-99.99,,2013-03-18 10:23:00,
2013-03-18 03:33:00,39.0,28.0,29.91,North,0,0.0,-999.0,64,0.00,,,-99.99,,2013-03-18 10:33:00,
2013-03-18 04:22:00,39.0,24.0,29.90,North,0,0.0,-999.0,55,0.00,,,-99.99,,2013-03-18 11:22:00,
2013-03-18 04:32:00,39.0,24.0,29.90,North,0,0.0,-999.0,55,0.00,,,-99.99,,2013-03-18 11:32:00,
2013-03-18 05:22:00,39.0,20.0,29.90,North,0,0.0,-999.0,47,0.00,,,-99.99,,2013-03-18 12:22:00,
2013-03-18 05:32:00,39.0,20.0,29.90,North,0,0.0,-999.0,47,0.00,,,-99.99,,2013-03-18 12:32:00,
2013-03-18 05:42:00,39.0,20.0,29.90,North,0,0.0,-999.0,47,0.00,,,-99.99,,2013-03-18 12:42:00,
2013-03-18 05:52:00,39.0,20.0,29.90,North,0,0.0,-999.0,47,0.00,,,-99.99,,2013-03-18 12:52:00,
2013-03-18 06:22:00,42.0,14.0,29.91,North,0,0.0,-999.0,32,0.00,,,-99.99,,2013-03-18 13:22:00,
2013-03-18 06:42:00,42.0,14.0,29.91,North,0,0.0,-999.0,32,0.00,,,-99.99,,2013-03-18 13:42:00,
2013-03-18 06:52:00,42.0,14.0,29.91,North,0,0.0,-999.0,32,0.00,,,-99.99,,2013-03-18 13:52:00,
2013-03-18 07:22:00,40.0,14.0,29.94,North,0,0.0,-999.0,34,0.00,,,-99.99,,2013-03-18 14:22:00,
2013-03-18 07:32:00,40.0,14.0,29.94,North,0,0.0,-999.0,34,0.00,,,-99.99,,2013-03-18 14:32:00,
2013-03-18 07:42:00,40.0,14.0,29.94,North,0,0.0,-999.0,34,0.00,,,-99.99,,2013-03-18 14:42:00,
2013-03-18 07:52:00,40.0,14.0,29.94,North,0,0.0,-999.0,34,0.00,,,-99.99,,2013-03-18 14:52:00,
2013-03-18 08:22:00,44.0,18.0,29.95,North,0,0.0,-999.0,35,0.00,,,-99.99,,2013-03-18 15:22:00,
2013-03-18 08:33:00,44.0,18.0,29.95,North,0,0.0,-999.0,35,0.00,,,-99.99,,2013-03-18 15:33:00,
2013-03-18 08:42:00,44.0,18.0,29.95,North,0,0.0,-999.0,35,0.00,,,-99.99,,2013-03-18 15:42:00,
2013-03-18 08:52:00,44.0,18.0,29.95,North,0,0.0,-999.0,35,0.00,,,-99.99,,2013-03-18 15:52:00,
2013-03-18 09:22:00,52.0,22.0,29.95,North,0,0.0,-999.0,31,0.00,,,-99.99,,2013-03-18 16:22:00,
2013-03-18 09:32:00,52.0,22.0,29.95,North,0,0.0,-999.0,31,0.00,,,-99.99,,2013-03-18 16:32:00,
2013-03-18 09:42:00,52.0,22.0,29.95,North,0,0.0,-999.0,31,0.00,,,-99.99,,2013-03-18 16:42:00,
2013-03-18 09:52:00,52.0,22.0,29.95,North,0,0.0,-999.0,31,0.00,,,-99.99,,2013-03-18 16:52:00,
2013-03-18 10:22:00,57.0,23.0,29.97,North,0,0.0,-999.0,27,0.00,,,-99.99,,2013-03-18 17:22:00,
2013-03-18 10:32:00,57.0,23.0,29.97,North,0,0.0,-999.0,27,0.00,,,-99.99,,2013-03-18 17:32:00,
2013-03-18 10:42:00,57.0,23.0,29.97,North,0,0.0,-999.0,27,0.00,,,-99.99,,2013-03-18 17:42:00,
2013-03-18 10:52:00,57.0,23.0,29.97,North,0,0.0,-999.0,27,0.00,,,-99.99,,2013-03-18 17:52:00,
2013-03-18 11:22:00,61.0,23.0,29.98,West,280,3.0,-999.0,23,0.00,,,-99.99,,2013-03-18 18:22:00,
2013-03-18 11:32:00,61.0,23.0,29.98,West,280,3.0,-999.0,23,0.00,,,-99.99,,2013-03-18 18:32:00,
2013-03-18 11:42:00,61.0,23.0,29.98,West,280,3.0,-999.0,23,0.00,,,-99.99,,2013-03-18 18:42:00,
2013-03-18 11:52:00,61.0,23.0,29.98,West,280,3.0,-999.0,23,0.00,,,-99.99,,2013-03-18 18:52:00,
2013-03-18 12:22:00,63.0,25.0,29.98,NE,40,2.0,-999.0,23,0.00,,,-99.99,,2013-03-18 19:22:00,
2013-03-18 12:32:00,63.0,25.0,29.98,NE,40,2.0,-999.0,23,0.00,,,-99.99,,2013-03-18 19:32:00,
2013-03-18 12:42:00,63.0,25.0,29.98,NE,40,2.0,-999.0,23,0.00,,,-99.99,,2013-03-18 19:42:00,
2013-03-18 12:52:00,63.0,25.0,29.98,NE,40,2.0,-999.0,23,0.00,,,-99.99,,2013-03-18 19:52:00,
2013-03-18 13:22:00,63.0,22.0,29.97,North,0,0.0,-999.0,21,0.00,,,-99.99,,2013-03-18 20:22:00,
2013-03-18 13:32:00,63.0,22.0,29.97,North,0,0.0,-999.0,21,0.00,,,-99.99,,2013-03-18 20:32:00,
2013-03-18 13:42:00,63.0,22.0,29.97,North,0,0.0,-999.0,21,0.00,,,-99.99,,2013-03-18 20:42:00,
2013-03-18 13:52:00,63.0,22.0,29.97,North,0,0.0,-999.0,21,0.00,,,-99.99,,2013-03-18 20:52:00,
2013-03-18 14:22:00,66.0,24.0,29.95,North,0,0.0,-999.0,20,0.00,,,-99.99,,2013-03-18 21:22:00,
2013-03-18 14:32:00,66.0,24.0,29.95,North,0,0.0,-999.0,20,0.00,,,-99.99,,2013-03-18 21:32:00,
2013-03-18 14:42:00,66.0,24.0,29.95,North,0,0.0,-999.0,20,0.00,,,-99.99,,2013-03-18 21:42:00,
2013-03-18 14:52:00,66.0,24.0,29.95,North,0,0.0,-999.0,20,0.00,,,-99.99,,2013-03-18 21:52:00,
2013-03-18 15:23:00,63.0,30.0,29.93,North,0,0.0,-999.0,29,0.00,,,-99.99,,2013-03-18 22:23:00,
2013-03-18 15:33:00,63.0,30.0,29.93,North,0,0.0,-999.0,29,0.00,,,-99.99,,2013-03-18 22:33:00,
2013-03-18 15:42:00,63.0,30.0,29.93,North,0,0.0,-999.0,29,0.00,,,-99.99,,2013-03-18 22:42:00,
2013-03-18 15:52:00,63.0,30.0,29.93,North,0,0.0,-999.0,29,0.00,,,-99.99,,2013-03-18 22:52:00,
2013-03-18 16:22:00,63.0,30.0,29.94,North,0,0.0,-999.0,29,0.00,,,-99.99,,2013-03-18 23:22:00,
2013-03-18 16:32:00,63.0,30.0,29.94,North,0,0.0,-999.0,29,0.00,,,-99.99,,2013-03-18 23:32:00,
2013-03-18 16:42:00,63.0,30.0,29.94,North,0,0.0,-999.0,29,0.00,,,-99.99,,2013-03-18 23:42:00,
2013-03-18 16:52:00,63.0,30.0,29.94,North,0,0.0,-999.0,29,0.00,,,-99.99,,2013-03-18 23:52:00,
2013-03-18 17:22:00,62.0,27.0,29.94,North,0,0.0,-999.0,26,0.00,,,-99.99,,2013-03-19 00:22:00,
2013-03-18 17:32:00,62.0,27.0,29.94,North,0,0.0,-999.0,26,0.00,,,-99.99,,2013-03-19 00:32:00,
2013-03-18 17:42:00,62.0,27.0,29.94,North,0,0.0,-999.0,26,0.00,,,-99.99,,2013-03-19 00:42:00,
2013-03-18 17:52:00,62.0,27.0,29.94,North,0,0.0,-999.0,26,0.00,,,-99.99,,2013-03-19 00:52:00,
2013-03-18 18:22:00,60.0,20.0,29.95,North,0,0.0,-999.0,21,0.00,,,-99.99,,2013-03-19 01:22:00,
2013-03-18 18:32:00,60.0,20.0,29.95,North,0,0.0,-999.0,21,0.00,,,-99.99,,2013-03-19 01:32:00,
2013-03-18 18:42:00,60.0,20.0,29.95,North,0,0.0,-999.0,21,0.00,,,-99.99,,2013-03-19 01:42:00,
2013-03-18 18:52:00,60.0,20.0,29.95,North,0,0.0,-999.0,21,0.00,,,-99.99,,2013-03-19 01:52:00,
2013-03-18 19:22:00,57.0,27.0,29.94,North,0,0.0,-999.0,31,0.00,,,-99.99,,2013-03-19 02:22:00,
2013-03-18 19:32:00,57.0,27.0,29.94,North,0,0.0,-999.0,31,0.00,,,-99.99,,2013-03-19 02:32:00,
2013-03-18 19:42:00,57.0,27.0,29.94,North,0,0.0,-999.0,31,0.00,,,-99.99,,2013-03-19 02:42:00,
2013-03-18 19:52:00,57.0,27.0,29.94,North,0,0.0,-999.0,31,0.00,,,-99.99,,2013-03-19 02:52:00,
2013-03-18 20:22:00,51.0,35.0,29.95,North,0,0.0,-999.0,55,0.00,,,-99.99,,2013-03-19 03:22:00,
2013-03-18 20:32:00,51.0,35.0,29.95,North,0,0.0,-999.0,55,0.00,,,-99.99,,2013-03-19 03:32:00,
2013-03-18 21:23:00,51.0,29.0,29.97,North,0,0.0,-999.0,43,0.00,,,-99.99,,2013-03-19 04:23:00,
2013-03-18 21:33:00,51.0,29.0,29.97,North,0,0.0,-999.0,43,0.00,,,-99.99,,2013-03-19 04:33:00,
2013-03-18 21:42:00,51.0,29.0,29.97,North,0,0.0,-999.0,43,0.00,,,-99.99,,2013-03-19 04:42:00,
2013-03-18 21:52:00,51.0,29.0,29.97,North,0,0.0,-999.0,43,0.00,,,-99.99,,2013-03-19 04:52:00,
2013-03-18 22:22:00,51.0,21.0,29.97,North,0,0.0,-999.0,30,0.00,,,-99.99,,2013-03-19 05:22:00,
2013-03-18 22:32:00,51.0,21.0,29.97,North,0,0.0,-999.0,30,0.00,,,-99.99,,2013-03-19 05:32:00,
2013-03-18 22:42:00,51.0,21.0,29.97,North,0,0.0,-999.0,30,0.00,,,-99.99,,2013-03-19 05:42:00,
2013-03-18 22:52:00,51.0,21.0,29.97,North,0,0.0,-999.0,30,0.00,,,-99.99,,2013-03-19 05:52:00,
2013-03-18 23:22:00,49.0,26.0,30.00,North,0,0.0,-999.0,41,0.00,,,-99.99,,2013-03-19 06:22:00,
2013-03-18 23:32:00,49.0,26.0,30.00,North,0,0.0,-999.0,41,0.00,,,-99.99,,2013-03-19 06:32:00,
2013-03-18 23:42:00,49.0,26.0,30.00,North,0,0.0,-999.0,41,0.00,,,-99.99,,2013-03-19 06:42:00,
2013-03-18 23:52:00,49.0,26.0,30.00,North,0,0.0,-999.0,41,0.00,,,-99.99,,2013-03-19 06:52:00,